Hourly Data Report for April 12, 2012

MIRAMICHI RCS
NEW BRUNSWICK

47°00'34.000" N
65°27'54.000" W
33.00 m
8100989
71744
ACQ

Download Data

Hourly Data (April 2012)
Hourly Data Report for April 12, 2012
TIME
LST
Temp Definition
°C
Dew Point Definition
°C
Rel Hum Definition
%
Precip. Amount Definition
mm

Wind Dir Definition
10's deg

Wind Spd Definition
km/h
Visibility Definition
km
Stn Press Definition
kPa
Hmdx Definition


Wind Chill Definition


Weather Definition


00:00 0.9 0.4 96   4 11   100.94     LegendNANA
01:00 0.7 0.2 96   3 6   100.91     LegendNANA
02:00 0.5 0.0 96   5 6   100.91     LegendNANA
03:00 0.2 -0.3 96   6 9   100.96     LegendNANA
04:00 -0.2 -1.0 94   36 6   100.93   -2 LegendNANA
05:00 -0.6 -1.5 94   2 6   100.98   -3 LegendNANA
06:00 -0.2 -1.1 94   33 6   101.03   -2 LegendNANA
07:00 1.0 -0.2 92   35 6   101.05     LegendNANA
08:00 3.7 0.7 81   4 13   101.06     LegendNANA
09:00 4.5 0.5 75   5 20   101.10     LegendNANA
10:00 4.8 0.7 75   3 17   101.15     LegendNANA
11:00 5.7 0.9 71   4 13   101.16     LegendNANA
12:00 5.7 0.6 70   3 17   101.16     LegendNANA
13:00 6.6 0.4 65   2 9   101.15     LegendNANA
14:00 5.7 1.0 72   8 17   101.16     LegendNANA
15:00 6.0 1.0 70   7 19   101.17     LegendNANA
16:00 6.3 0.5 66   8 19   101.18     LegendNANA
17:00 5.7 0.0 67   8 20   101.22     LegendNANA
18:00 5.0 0.0 70   8 24   101.26     LegendNANA
19:00 3.4 -0.9 73   8 19   101.30     LegendNANA
20:00 3.0 -0.7 77   8 13   101.35     LegendNANA
21:00 2.9 -0.4 79   6 6   101.34     LegendNANA
22:00 2.5 -0.7 79   7 2   101.33     LegendNANA
23:00 1.7 -0.7 84   30 4   101.34     LegendNANA

Notes on Data Quality.

Legend

  • E = Estimated
  • M = Missing
  • NA = Not Available*
  • [empty] = Indicates an unobserved value
Date modified: